Regional Weather Roundup
Issued by NWS

Home | Current Version | Previous Version | Text Only | Print | Product List | Glossary On
Versions: 1 2 3 4 5 6 7 8 9 10 11 12 13 14 15 16 17 18 19 20 21 22 23 24 25 26 27 28 29 30 31 32 33 34 35 36 37 38 39 40 41 42 43 44 45 46 47 48 49 50
000
ASUS46 KLOX 180612
RWRCA

SOUTHERN CALIFORNIA WEATHER ROUNDUP
NATIONAL WEATHER SERVICE OXNARD CALIFORNIA
1100 PM PDT WED SEP 17 2014

NOTE: "FAIR" INDICATES FEW OR NO CLOUDS BELOW 12,000 FEET WITH NO
SIGNIFICANT WEATHER AND/OR OBSTRUCTIONS TO VISIBILITY.

  -  STATIONS PRECEEDED BY AN ASTERISK (*) ARE NOT NWS OR FAA
     STATIONS AND ARE NOT SUBJECT TO NWS AND FAA QUALITY CONTROL.

CAZ041-042-087-180700-
LA AND ORANGE COUNTY COASTAL AREAS


CITY           SKY/WX    TMP DP  RH WIND       PRES   REMARKS
L.A. DOWNTOWN  CLEAR     74  59  59 CALM      29.77R
L.A. AIRPORT   CLEAR     70  59  68 SW9       29.78R
LONG BEACH     CLEAR     74  60  61 NW6       29.78S

CITY           SKY/WX    TMP DP  RH WIND       PRES   REMARKS
AVALON           N/A     77 N/A N/A N2          N/A
FULLERTON      CLEAR     76  57  51 VRB5      29.78R
*GETTY CENTER    N/A     77  54  44 N3G9        N/A
HAWTHORNE      CLEAR     72  59  63 W10       29.78R
*LOS ALAMITOS  FAIR      72  63  75 S5        29.78S
*REDONDO BEACH   N/A     69  60  74 SW2       29.78R
SANTA ANA      PTCLDY    76  64  66 SW3       29.79R
STA MONICA APT CLEAR     72  60  66 E5        29.77R
*STA MON PIER    N/A     72  64  76 NW5       29.76R
*UCLA            N/A     72  59  64 CALM      29.75S

$$

CAZ547-548-048-180700-
LA COUNTY VALLEYS AND INLAND EMPIRE


CITY           SKY/WX    TMP DP  RH WIND       PRES   REMARKS
BURBANK        CLEAR     79  55  43 SE6       29.79R
VAN NUYS       CLEAR     76  55  48 CALM      29.79R

CITY           SKY/WX    TMP DP  RH WIND       PRES   REMARKS
CORONA AIRPORT CLEAR     77  61  57 NW5       29.80R
*CHATSWORTH      N/A     73  58  58 CALM      29.73R
CHINO          PTCLDY    74  61  63 MISG      29.81R
*CLAREMONT       N/A     71  46  39 CALM        N/A
MARCH AFB      CLEAR     77  49  37 E1        29.84R
*NORTHRIDGE      N/A     73  54  49 CALM        N/A
ONTARIO        PTCLDY    78  56  46 W6        29.80S
*PASADENA        N/A     75  61  60 E2          N/A
RIVERSIDE      CLEAR     80  56  43 NW5       29.80S
SAN BERNARDINO NOT AVBL
*SAN GABRIEL     N/A     75  55  49 CALM      29.74R
*WHITEMAN AP   NOT AVBL
*WOODLAND HILL   N/A     75  54  46 W5          N/A

$$

CAZ054-055-180700-
LA AND SAN BERNARDINO COUNTY MOUNTAINS


CITY           SKY/WX    TMP DP  RH WIND       PRES   REMARKS
*ACTON           N/A     72  48  43 CALM        N/A
*BIG BEAR AIRP CLEAR     59  50  72 SW3       30.16S
*BIG PINES       N/A     63  40  42 CALM        N/A
MT WILSON NWS    N/A     70  41  35 W5G15       N/A
SANDBERG       CLEAR     72  46  39 NW10      30.01S

$$

CAZ028-029-059-060-099-180700-
ANTELOPE VALLEY AND SURROUNDING AREAS


CITY           SKY/WX    TMP DP  RH WIND       PRES   REMARKS
LANCASTER      CLEAR     79  47  32 SW10      29.85R
PALMDALE       CLEAR     80  46  30 SW8       29.86S

CITY           SKY/WX    TMP DP  RH WIND       PRES   REMARKS
29 PALMS       CLEAR     85  61  44 S5        29.86R
BARSTOW/DAGGET MOCLDY    89  44  20 SW12      29.79R
BISHOP         CLEAR     77  41  27 N9        29.85S
CHINA LAKE     CLEAR     83  42  23 S3        29.77R
EDWARDS AFB    CLEAR     78  46  32 SW9       29.82R
MOJAVE         FAIR      81  48  32 W17G30    29.84R
NEEDLES        CLEAR     89  66  46 CALM      29.73S HX  91
VICTORVILLE    PTCLDY    79  52  38 S7        29.89S

$$

CAZ039-040-180700-
VENTURA AND SANTA BARBARA COUNTY COAST


CITY           SKY/WX    TMP DP  RH WIND       PRES   REMARKS
CAMARILLO      CLEAR     72  59  63 S3        29.78R
NWS OXNARD       N/A     67  59  74 CALM      29.77S
OXNARD AIRPORT CLEAR     68  60  75 NW8       29.78R
*POINT MUGU    CLEAR     71  59  65 N5        29.79R
SBA APT/GOLETA CLEAR     68  57  68 CALM      29.75R
*VENTURA         N/A     67  58  72 CALM      29.81S

$$

CAZ044-045-180700-
VENTURA COUNTY VALLEYS


CITY           SKY/WX    TMP DP  RH WIND       PRES   REMARKS
*SIMI VALLEY     N/A     67  57  70 CALM      29.72S
*OJAI            N/A     67  57  70 CALM      29.70R
*FILLMORE        N/A     67  59  74 CALM      29.68R

$$

CAZ053-180700-
VENTURA COUNTY MOUNTAINS


CITY           SKY/WX    TMP DP  RH WIND       PRES   REMARKS
*LOCKWOOD VLY    N/A     55  39  54 MISG        N/A
*ROSE VALLEY     N/A     61  45  55 MISG        N/A

$$

CAZ034-035-036-180700-
CENTRAL COAST AND SANTA YNEZ VALLEY


CITY           SKY/WX    TMP DP  RH WIND       PRES   REMARKS
SAN LUIS OBISP CLEAR     62  56  80 CALM      29.85S
SANTA MARIA    CLEAR     62  57  83 CALM      29.86S

CITY           SKY/WX    TMP DP  RH WIND       PRES   REMARKS
*CAL POLY SLO    N/A     59  55  88 NE1G9       N/A
*LOMPOC        CLEAR     57  52  82 CALM      29.86S
*PISMO BEACH     N/A     62  58  86 CALM      29.86S
*SANTA YNEZ    FAIR      61  54  77 CALM      29.86S

$$

CAZ037-038-051-180700-
SAN LUIS OBISPO COUNTY INTERIOR AND CUYAMA VALLEY


CITY           SKY/WX    TMP DP  RH WIND       PRES   REMARKS
*CUYAMA          N/A     65  48  53 W5        29.75S
PASO ROBLES    CLEAR     65  51  60 S6        29.84R

$$

CAZ032-033-061-180700-
SOUTHERN DESERTS


CITY           SKY/WX    TMP DP  RH WIND       PRES   REMARKS
BLYTHE         CLEAR     89  68  49 SE6       29.70R HX  93
IMPERIAL       CLEAR     92  65  40 CALM      29.65S HX  94
PALM SPRINGS   CLEAR     93  62  35 CALM      29.72R HX  93
THERMAL        CLEAR     88  66  48 N6        29.65R HX  90

$$

ELSEWHERE ACROSS THE WESTERN UNITED STATES AND MEXICO


CITY           SKY/WX    TMP DP  RH WIND       PRES   REMARKS
DENVER, CO     PTCLDY    64  43  46 SW9       30.07F
GRAND CANYON,  CLEAR     51  46  83 CALM      30.16S
HONOLULU, HI   PTCLDY    82  70  65 NE7       29.95R
KAHULUI, MAUI  PTCLDY    81  72  74 NE8       29.96R
LAKE TAHOE, CA CLEAR     65  34  31 S12G18    30.00S
LAS VEGAS, NV  CLEAR     88  58  36 S15       29.75S
MAMMOTH LAKES, FAIR      59  37  44 W7        30.11S
MEXICO CITY, M PTCLDY    61  50  67 S3        30.33S
PHOENIX, AZ    PTCLDY    83  66  56 NE13      29.74S
PORTLAND, OR   CLOUDY    68  59  73 N3        29.74S
RENO, NV       PTCLDY    74  37  26 S17       29.87S
SALT LAKE CITY PTCLDY    78  40  25 S14       29.89R
SAN DIEGO, CA  PTCLDY    75  68  78 NW5       29.82R
SAN FRANCISCO, DRIZZLE   72  66  81 S10       29.77S
SAN JOSE, CA   PTCLDY    70  59  68 S10       29.79R
SEATTLE, WA    CLOUDY    65  55  70 NE8       29.76F
TIJUANA, MEX   PTCLDY    72  63  73 W7        29.84R

$$

STATION/POSITION TIME  TEMP    WIND        PRES    VSBY  WAVE
                       AIR SEA DIR/SP/G                  HT/PER
                 (UTC) (F)     (DEG/KT/KT) (MB)    (MI)  (FT/S)
POINT ARGUELLO B NOT AVBL
WEST SANTA BARBA 0600   62 59  300/ 12/ 14 1009.4R         5/14
POINT CONCEPTION NOT AVBL
EAST SANTA BARBA 0600   67 65  260/ 23/ 27 1007.4F
SANTA MONICA BAY 0600   71 74  290/ 17/ 21 1007.9R         7/ 6


USA.gov is the U.S. government's official web portal to all federal, state and local government web resources and services.